Location: Seasalter
(51.3333°N, 1.0167°E)
Time: 10:07:03
(UTC+00:00)

Cosmos 44 - Pass Details

Date: 26 September 2023
Orbit: 570 x 788 km, 65.1° (Epoch: 09 December)

Event Time Altitude Azimuth Distance (km) Brightness Sun altitude
Exits shadow 04:39:08 16° 265° (W) 1,883 4.9 -11.5°
Maximum altitude 04:42:52 37° 326° (NNW) 1,159 4.3 -10.9°
Drops below altitude 10° 04:47:51 10° 34° (NE) 2,334 6.7 -10.1°
Sets 04:50:30 0° 43° (NE) 3,280 7.7 -9.7°
